Wind_Speed
38 36 36 27 30 25 23 23 27 25 22 21 17 13 11 12 16 16 19 20 22 27 30 33 36 40 42 45 48 50 49 42 49 51 55 52 45 48 46 42 39 38 36
38 40 36 30 29 25 24 25 26 23 22 18 15 12 11 13 15 16 18 21 25 30 32 35 38 39 44 46 47 43 40 43 44 48 48 46 43 38 40 42 41 40 40
40 40 35 27 27 22 20 24 21 19 17 16 13 11 11 13 12 15 20 23 28 32 32 35 39 43 45 44 42 44 48 47 46 46 51 48 45 39 38 43 42 40 38
40 39 30 28 26 21 19 15 18 17 16 14 12 10 11 12 13 17 21 26 31 34 34 36 39 42 45 45 45 47 49 51 48 46 48 49 42 37 37 41 41 32 34
38 32 31 28 27 23 14 17 20 17 15 12 11 11 10 12 14 18 22 27 33 33 35 33 39 41 44 45 47 49 41 39 40 42 44 44 41 38 37 35 34 27 29
28 29 28 28 27 19 14 17 16 14 13 12 11 11 11 13 14 19 23 26 33 33 37 34 39 40 45 48 49 45 38 34 36 38 40 42 40 36 29 27 25 26 25
28 27 28 24 21 13 14 15 14 13 11 12 12 13 13 13 16 19 23 27 32 32 36 35 41 44 49 53 56 38 34 25 28 36 37 40 39 33 25 25 22 28 29
28 27 26 24 15 14 17 16 15 13 11 11 12 12 14 16 18 20 24 28 32 32 33 30 37 42 45 53 49 34 25 23 19 22 29 30 33 31 28 25 20 21 24
27 25 25 19 14 17 18 16 14 11 11 11 11 11 13 15 19 22 26 30 33 31 32 30 32 38 44 53 39 28 25 27 21 24 26 26 21 22 20 26 21 15 18
24 24 22 19 15 15 15 15 12 12 12 13 11 11 14 17 18 22 27 30 29 27 27 31 30 34 42 53 40 36 22 28 38 19 12 18 21 17 15 20 20 17 13
24 25 21 18 15 16 16 15 14 13 14 13 11 11 15 17 17 22 25 26 24 23 25 29 32 32 37 43 43 43 34 21 32 24 6 4 5 10 9 17 20 13 10
22 25 23 19 18 21 18 16 14 15 15 14 14 12 16 16 18 18 23 20 20 21 22 24 26 29 35 37 40 44 45 30 26 31 24 21 12 7 8 8 10 13 9
25 27 23 21 23 20 21 15 17 17 15 15 15 14 16 14 13 16 21 18 17 17 18 18 20 24 31 33 34 38 40 45 45 39 34 29 22 17 16 12 7 5 8
26 22 21 20 23 22 21 17 20 15 11 12 16 17 13 11 11 16 20 18 16 15 15 15 16 19 23 26 32 34 35 36 40 40 41 40 32 30 25 21 18 19 17
18 18 20 21 21 25 24 19 21 13 20 22 17 13 8 9 9 16 19 19 18 17 13 14 15 18 21 24 28 30 33 33 35 35 35 37 38 37 35 33 34 31 30
18 21 24 22 23 27 24 23 18 21 19 13 11 8 7 7 9 13 16 17 14 14 13 14 17 19 20 22 24 25 26 28 30 31 32 30 29 28 28 30 31 32 31
14 16 19 22 23 23 20 20 19 19 14 8 10 9 7 5 7 12 15 16 13 12 16 18 20 20 20 18 18 18 20 21 21 23 24 26 26 27 29 29 28 26 26
12 16 16 19 24 21 16 17 16 14 11 13 14 10 7 3 5 10 13 11 12 15 18 18 19 19 19 20 18 16 14 16 18 19 19 19 20 20 21 22 22 21 19
8 10 12 13 13 13 16 15 14 13 12 13 18 13 8 6 4 6 10 12 13 14 18 19 19 19 19 19 18 17 16 14 14 14 15 16 16 16 17 18 18 17 16
10 11 9 9 10 11 13 13 12 12 16 16 16 11 8 8 5 4 8 9 10 13 16 19 18 17 17 17 17 15 14 13 12 13 13 13 13 14 15 16 17 17 17
9 13 14 10 8 9 9 9 8 13 16 16 14 11 9 6 7 4 5 5 7 11 15 18 18 16 17 17 15 14 14 13 12 13 14 14 14 15 15 15 15 14 15
8 10 10 9 7 7 8 8 8 13 13 14 15 12 7 7 4 2 5 6 5 9 13 16 18 17 17 17 16 15 13 12 12 12 14 14 15 15 15 15 15 15 15
3 6 7 8 8 8 9 9 11 14 17 16 15 12 11 7 3 2 5 4 5 8 11 14 17 17 16 16 16 15 14 13 12 13 13 13 14 15 15 15 15 15 16
5 4 5 8 8 9 10 10 12 15 16 14 13 14 10 5 3 4 5 4 5 8 11 14 16 15 15 15 15 15 14 13 13 13 13 12 13 14 14 14 14 15 15
6 4 1 5 7 8 9 12 14 19 18 15 14 15 11 6 4 4 5 3 5 8 11 13 14 15 15 15 15 14 15 14 13 13 13 13 13 13 14 14 14 15 16
6 5 6 8 8 8 14 12 9 11 14 16 19 14 9 6 4 4 4 3 6 8 10 11 12 14 15 15 14 15 15 15 15 14 13 13 13 13 13 13 13 14 15
Wind_Direction
236 231 230 232 237 239 249 256 257 254 266 274 284 293 301 316 319 318 321 321 319 317 315 312 310 311 310 309 307 300 292 284 270 276 284 284 279 280 278 274 270 264 262
240 238 230 232 234 237 248 252 249 258 264 275 283 290 304 315 313 319 326 324 326 324 322 318 315 315 314 313 312 307 294 289 278 274 276 281 278 271 269 272 268 263 259
242 241 235 238 237 254 251 252 256 255 267 272 278 290 303 309 302 325 326 327 328 325 325 326 325 323 320 319 319 308 299 290 283 274 277 283 280 269 267 271 269 266 253
241 241 240 243 254 257 261 250 251 260 264 268 278 283 300 296 302 321 325 327 331 328 326 326 327 328 332 325 315 309 300 291 289 277 273 277 271 266 264 267 272 266 251
241 240 239 242 252 268 257 254 252 254 260 270 269 281 292 292 313 320 324 330 334 334 334 331 332 332 335 325 315 309 298 284 281 274 268 268 265 266 264 267 263 254 257
244 239 241 242 256 270 263 257 243 252 261 263 270 281 279 294 310 320 321 327 336 335 337 335 343 348 346 335 324 314 306 284 272 265 267 261 261 262 266 254 246 247 246
251 232 236 245 255 253 256 240 242 252 256 258 268 272 275 292 305 315 321 325 334 335 338 335 343 351 346 344 331 324 309 298 269 261 258 262 261 258 247 260 244 242 244
250 242 234 242 250 252 247 233 238 245 250 258 274 277 291 298 305 313 319 325 332 338 340 339 342 349 352 350 338 326 326 317 293 269 258 263 262 260 247 241 248 253 252
248 236 238 243 234 245 225 233 237 243 248 256 271 275 291 298 304 312 318 326 332 336 344 344 345 353 355 359 347 343 331 326 313 284 269 259 255 252 242 235 246 254 252
246 238 235 219 232 225 225 230 242 244 242 256 257 274 291 298 304 314 317 326 329 337 351 350 353 360 4 3 3 11 17 28 12 334 270 258 244 235 229 227 233 254 249
234 225 211 219 228 215 223 238 246 245 242 251 260 278 293 303 305 312 320 327 331 339 347 348 355 8 14 6 12 25 27 18 19 22 52 10 150 200 204 207 218 233 250
230 215 218 236 222 212 225 240 248 240 246 254 266 276 287 295 302 312 326 334 335 337 340 343 355 12 19 9 17 22 44 41 41 40 77 79 82 105 148 174 209 241 227
220 220 239 247 223 231 228 242 233 235 258 263 267 269 281 284 295 321 337 341 341 341 335 339 354 12 25 18 24 25 36 45 43 53 54 64 90 108 122 134 140 164 201
226 234 249 245 232 232 228 248 249 263 262 267 267 260 270 265 300 328 342 350 352 346 332 336 354 19 31 27 31 37 40 48 53 55 50 59 66 75 88 96 104 103 102
246 245 239 244 248 225 234 253 255 268 278 273 262 269 228 268 320 343 352 0 1 353 338 332 357 17 21 25 30 32 38 44 54 57 60 63 61 60 60 64 70 75 77
239 243 246 241 230 230 250 259 254 293 298 259 229 210 237 270 327 352 0 6 6 0 352 6 14 20 23 22 24 29 31 38 44 53 58 63 68 69 73 72 73 73 73
247 244 249 241 228 253 262 253 267 276 271 226 195 213 220 275 341 360 5 7 13 12 21 21 22 17 21 21 22 24 31 33 38 44 51 60 63 64 65 64 63 63 63
243 246 245 241 249 261 251 265 260 265 240 200 190 200 217 268 340 358 9 5 15 23 28 21 24 24 20 21 25 24 21 23 29 37 47 52 55 56 55 55 53 51 51
229 244 250 248 250 249 253 247 253 249 216 209 192 197 209 256 314 354 0 5 20 23 26 21 21 19 22 24 24 23 22 23 29 32 38 44 45 45 48 46 42 38 36
244 241 253 264 250 245 247 245 245 232 203 200 204 199 222 235 248 311 347 3 8 18 20 21 21 21 20 19 20 20 22 24 29 34 40 37 35 32 30 27 27 30 35
241 235 243 242 245 229 245 254 232 211 200 205 196 212 203 223 229 265 340 355 3 13 14 16 19 21 21 20 18 17 18 21 24 28 30 28 26 28 27 24 25 26 28
259 241 220 219 223 226 230 239 213 208 207 200 201 193 178 184 215 290 347 346 355 6 9 9 9 12 12 15 17 18 18 20 21 23 25 22 19 19 21 18 19 17 16
153 144 192 214 200 214 216 212 209 198 195 196 193 183 182 205 230 294 340 342 348 359 7 6 6 8 13 14 14 15 15 18 17 15 14 17 15 16 18 17 19 17 16
167 196 219 215 212 208 212 217 209 178 184 183 186 185 192 211 245 317 338 337 347 353 358 0 4 12 14 13 12 12 13 14 12 6 6 11 9 6 8 11 15 15 14
172 154 196 211 198 192 182 172 179 177 187 191 194 193 198 215 259 301 324 313 335 351 355 360 3 6 10 11 11 12 12 12 9 4 358 357 357 357 359 1 5 7 9
166 171 197 207 205 186 169 168 172 190 203 207 195 197 205 225 254 297 299 311 346 354 2 6 4 5 6 8 10 12 11 9 5 359 355 353 350 349 351 352 353 357 360
Height
1521 1526 1527 1538 1532 1536 1537 1536 1540 1542 1542 1541 1538 1536 1535 1533 1532 1529 1527 1526 1523 1519 1515 1510 1505 1500 1493 1487 1480 1473 1466 1463 1450 1443 1443 1443 1442 1444 1444 1445 1448 1450 1452
1515 1519 1525 1527 1530 1530 1530 1532 1536 1538 1537 1536 1535 1534 1531 1530 1528 1525 1523 1521 1518 1514 1509 1503 1497 1491 1483 1475 1465 1457 1452 1448 1442 1433 1433 1431 1431 1432 1432 1433 1434 1437 1439
1509 1513 1517 1525 1526 1520 1525 1530 1533 1533 1533 1532 1532 1530 1529 1525 1525 1521 1520 1517 1514 1510 1504 1497 1490 1481 1471 1462 1454 1446 1440 1433 1429 1424 1419 1419 1419 1420 1420 1420 1421 1423 1427
1506 1510 1517 1521 1523 1524 1525 1527 1529 1528 1529 1529 1528 1526 1524 1524 1522 1518 1516 1513 1508 1503 1497 1489 1482 1474 1463 1453 1444 1435 1425 1419 1416 1412 1410 1407 1409 1410 1410 1409 1409 1411 1414
1503 1508 1514 1515 1518 1518 1522 1523 1524 1524 1524 1525 1524 1524 1522 1521 1519 1515 1512 1508 1503 1496 1490 1483 1476 1467 1458 1446 1433 1421 1413 1406 1403 1400 1399 1398 1398 1400 1399 1401 1400 1403 1406
1501 1504 1509 1509 1513 1517 1519 1519 1521 1521 1522 1522 1521 1521 1520 1518 1515 1511 1508 1503 1498 1491 1482 1477 1468 1459 1447 1434 1419 1405 1398 1392 1388 1388 1387 1386 1388 1390 1392 1392 1394 1397 1400
1496 1500 1502 1505 1509 1513 1515 1516 1517 1518 1519 1518 1517 1517 1515 1512 1511 1507 1503 1499 1493 1486 1478 1470 1462 1453 1439 1424 1403 1392 1386 1378 1378 1376 1376 1377 1378 1382 1386 1386 1389 1392 1395
1491 1494 1498 1502 1505 1508 1510 1511 1513 1513 1513 1513 1514 1514 1513 1512 1508 1504 1500 1495 1489 1483 1475 1467 1459 1449 1436 1418 1397 1386 1380 1376 1372 1370 1368 1368 1370 1373 1378 1382 1386 1389 1393
1487 1491 1496 1499 1503 1505 1506 1508 1509 1510 1509 1509 1509 1509 1508 1507 1505 1502 1497 1491 1484 1480 1473 1466 1458 1448 1434 1417 1399 1385 1378 1372 1364 1363 1361 1361 1365 1367 1372 1377 1381 1385 1388
1484 1489 1492 1497 1500 1501 1503 1504 1505 1505 1503 1504 1504 1504 1503 1504 1500 1498 1494 1488 1481 1476 1470 1465 1458 1447 1433 1418 1401 1390 1380 1369 1367 1355 1355 1356 1355 1363 1368 1374 1379 1383 1386
1481 1486 1491 1494 1495 1496 1498 1499 1500 1500 1500 1502 1502 1500 1501 1500 1498 1496 1492 1484 1478 1473 1468 1463 1456 1446 1434 1425 1412 1393 1384 1376 1365 1355 1354 1355 1357 1362 1367 1372 1377 1381 1384
1480 1485 1488 1489 1491 1491 1493 1494 1496 1499 1499 1498 1498 1496 1497 1495 1495 1493 1489 1483 1477 1472 1468 1464 1458 1448 1437 1429 1416 1404 1387 1381 1372 1360 1360 1362 1363 1365 1370 1374 1378 1380 1382
1478 1480 1483 1484 1486 1489 1490 1491 1493 1494 1495 1496 1495 1494 1494 1493 1492 1491 1487 1481 1477 1472 1468 1465 1459 1450 1441 1434 1424 1413 1400 1392 1386 1377 1371 1370 1369 1371 1373 1376 1378 1381 1383
1474 1476 1478 1480 1483 1485 1488 1490 1492 1492 1491 1491 1491 1490 1489 1491 1490 1488 1484 1479 1475 1471 1468 1465 1459 1452 1445 1440 1431 1422 1415 1405 1399 1393 1389 1383 1378 1377 1378 1381 1381 1380 1380
1470 1472 1474 1477 1479 1481 1483 1487 1487 1488 1488 1487 1487 1487 1488 1489 1487 1486 1483 1477 1474 1470 1468 1465 1458 1453 1446 1441 1436 1431 1424 1418 1410 1406 1402 1397 1394 1391 1389 1390 1388 1386 1385
1467 1469 1471 1473 1475 1478 1479 1481 1482 1483 1482 1481 1482 1484 1485 1486 1484 1483 1481 1478 1474 1470 1468 1463 1457 1453 1449 1444 1440 1437 1434 1428 1423 1418 1414 1411 1408 1406 1404 1404 1401 1399 1400
1465 1467 1469 1470 1472 1475 1476 1477 1479 1480 1478 1479 1481 1482 1483 1484 1484 1484 1481 1479 1476 1471 1466 1464 1459 1455 1452 1449 1446 1443 1440 1437 1433 1428 1424 1421 1418 1415 1412 1410 1409 1407 1406
1463 1465 1466 1467 1469 1469 1471 1473 1474 1475 1476 1477 1480 1482 1482 1483 1483 1484 1482 1481 1478 1472 1468 1465 1462 1459 1455 1451 1448 1446 1444 1442 1438 1435 1431 1428 1426 1423 1420 1419 1418 1417 1416
1461 1463 1463 1464 1465 1466 1467 1469 1470 1471 1473 1475 1477 1479 1481 1482 1483 1483 1482 1481 1477 1474 1469 1467 1463 1460 1457 1453 1450 1449 1447 1445 1442 1439 1436 1433 1431 1429 1427 1425 1424 1422 1420
1458 1459 1460 1460 1461 1462 1464 1465 1467 1468 1470 1473 1476 1478 1480 1481 1483 1483 1482 1481 1478 1475 1472 1469 1466 1463 1459 1456 1454 1452 1450 1447 1444 1442 1439 1437 1434 1432 1430 1428 1426 1425 1424
1455 1455 1457 1458 1458 1460 1462 1463 1464 1466 1468 1471 1475 1477 1478 1481 1483 1482 1482 1481 1479 1475 1473 1470 1467 1464 1461 1459 1457 1454 1451 1449 1447 1444 1442 1440 1438 1435 1433 1431 1429 1428 1427
1452 1452 1454 1456 1458 1459 1461 1462 1464 1466 1469 1471 1474 1476 1478 1480 1482 1482 1481 1480 1479 1477 1475 1473 1469 1466 1463 1460 1458 1456 1453 1451 1448 1447 1445 1442 1441 1438 1435 1434 1431 1430 1429
1452 1452 1454 1456 1457 1459 1461 1462 1463 1465 1467 1470 1473 1475 1477 1479 1480 1481 1481 1480 1479 1477 1476 1474 1470 1467 1464 1462 1460 1458 1456 1452 1450 1448 1447 1445 1443 1441 1438 1437 1434 1432 1430
1452 1453 1454 1455 1456 1458 1460 1462 1462 1465 1468 1470 1473 1475 1477 1479 1479 1480 1480 1480 1479 1477 1476 1474 1471 1469 1466 1464 1462 1459 1457 1454 1452 1450 1448 1446 1444 1442 1440 1437 1435 1433 1431
1453 1454 1454 1455 1457 1458 1459 1461 1462 1465 1468 1471 1473 1475 1477 1479 1479 1480 1480 1480 1479 1478 1477 1474 1471 1469 1467 1465 1463 1461 1458 1455 1452 1450 1448 1446 1444 1443 1440 1437 1435 1433 1431
1452 1454 1455 1456 1457 1459 1460 1461 1464 1466 1469 1471 1474 1476 1477 1479 1480 1480 1480 1480 1479 1477 1476 1474 1472 1470 1468 1466 1464 1461 1458 1455 1453 1451 1449 1446 1444 1442 1440 1438 1436 1434 1431